LEMUR-2-MORAG (44403 NORAD) Tracking and Keplerian Element Data

This shows tracking and keplerian element data for the satellite.

Feedback or suggestion? Click here.




ElementValue
Catalog44403
NameLEMUR-2-MORAG
Epoch Orbit184
Epoch Day198.67789034
Epoch Year2019
RAAN160.3863
Inclination97.4916
Eccentricity0.0023039
Argument of Perigee203.5953
Mean Anonmoly156.4222
Mean Motion15.11742297
Decay Rate8.05E-06
L11 44403U 19038T 19198.67789034 .00000805 00000-0 50779-4 0 9993
L22 44403 97.4916 160.3863 0023039 203.5953 156.4222 15.11742297 1848

Live tracking and technical data element details for LEMUR-2-MORAG (NORAD 44403). LEMUR-2-MORAG can be tracked NOW for your location showing map with azimuth and elevation plus other details from your city location.

Track the satellite on the map from your city or location and see movement details for azimuth, elevation, latitude, longitude, range, height, and movement on the map or in text.







IsCatalogInMostPopularTable: catalog: 44403, numindb: 2
Update: records affected: 1



GetName: 44403 LEMUR-2-MORAG

Hit Count: updated at: Fri, 19 Jul 2019 08:34:35 GMT